Hourly Data Report for July 06, 2021

TORONTO CITY CENTRE
ONTARIO
Current Station Operator: NAVCAN

43°37'39.000" N
79°23'46.000" W
76.80 m
6158359
71265
YTZ

Download Data

Hourly Data (July 2021)
Hourly Data Report for July 6, 2021
TIME
LST
Temp Definition
°C
Dew Point Definition
°C
Rel Hum Definition
%
Precip. Amount Definition
mm

Wind Dir Definition
10's deg

Wind Spd Definition
km/h
Visibility Definition
km
Stn Press Definition
kPa
Hmdx Definition


Wind Chill Definition


Weather Definition


00:00 22.7 20.3 86 0.0 20 9 16.1 100.13 31   LegendNANA
01:00 21.5 20.2 92 0.0 23 11 16.1 100.11 29   LegendNANA
02:00 20.0 18.9 93 0.0 23 9 14.5 100.12 27   LegendNANA
03:00 20.8 19.5 92 0.0 27 9 16.1 100.14 28   LegendNANA
04:00 22.2 20.2 88 0.0 27 13 16.1 100.17 30   LegendNANA
05:00 23.1 20.1 83 0.0 26 15 16.1 100.22 31   LegendNANA
06:00 22.5 20.0 86 0.0 22 18 16.1 100.28 30   LegendNANA
07:00 23.1 20.3 84 0.0 22 15 16.1 100.30 31   LegendNANA
08:00 25.0 21.1 79 0.0 24 13 16.1 100.32 34   LegendNANA
09:00 28.6 21.5 65 0.0 28 13 16.1 100.31 37   LegendNANA
10:00 29.8 20.0 55 0.0 29 22 16.1 100.30 37   LegendNANA
11:00 30.9 19.8 51 0.0 28 18 16.1 100.34 38   LegendNANA
12:00 27.9 20.1 62 0.0 23 18 16.1 100.31 36   LegendNANA
13:00 32.3 17.7 41 0.0 31 18 16.1 100.29 38   LegendNANA
14:00 32.3 18.1 42 0.0 28 18 16.1 100.29 38   LegendNANA
15:00 32.7 17.6 40 0.0 26 28 16.1 100.27 38   LegendNANA
16:00 32.4 17.2 40 0.0 28 22 16.1 100.30 38   LegendNANA
17:00 32.0 16.8 40 0.0 29 22 16.1 100.28 37   LegendNANA
18:00 31.2 17.4 43 0.0 30 28 16.1 100.29 37   LegendNANA
19:00 30.1 16.7 44 0.0 30 21 16.1 100.37 35   LegendNANA
20:00 28.9 18.6 53 0.0 34 9 16.1 100.38 35   LegendNANA
21:00 28.3 18.3 54 0.0 32 9 16.1 100.43 35   LegendNANA
22:00 27.7 17.7 54 0.0 33 5 16.1 100.41 33   LegendNANA
23:00 25.0 17.8 64 0.0 27 5 16.1 100.44 31   LegendNANA

Notes on Data Quality.

Legend

  • E = Estimated
  • M = Missing
  • NA = Not Available*
  • [empty] = Indicates an unobserved value
Date modified: